Regional Weather Roundup
Issued by NWS State College, PA

Current Version | Previous Version | Text Only | Print | Product List | Glossary On
Versions: 1 2 3 4 5 6 7 8 9 10 11 12 13 14 15 16 17 18 19 20 21 22 23 24 25 26 27 28 29 30 31 32 33 34 35 36 37 38 39 40 41 42 43 44 45 46 47 48 49 50
000
ASUS41 KCTP 270410
RWRCTP

REGIONAL WEATHER ROUNDUP
NATIONAL WEATHER SERVICE STATE COLLEGE PA
1200 AM EDT MON APR 27 2015

Note: "fair" indicates few or no clouds below 12,000 feet with no
significant weather and/or obstructions to visibility.

* = STATION THAT DOES NOT REPORT PRECIPITATION /E.G. RAIN...SNOW...ETC/
    THUNDER OR FOG.

PAZ002>004-007>009-013>016-020>023-029>032-270500-
WESTERN PENNSYLVANIA

CITY           SKY/WX    TMP DP  RH WIND       PRES   REMARKS
ERIE           MOCLDY    41  33  73 VRB3      29.85R
MEADVILLE      PTCLDY    41  31  67 NW5       29.82S
FRANKLIN*      CLOUDY    43  28  56 W6        29.83S
NEW CASTLE     FAIR      43  31  63 NW5       29.86S
BEAVER COUNTY  NOT AVBL
BUTLER*        CLOUDY    45  30  57 NW3       29.84F
PITTSBURGH INT MOCLDY    45  31  58 NW7       29.84R
PITTSBURGH     CLEAR     44  27  51 NW9       29.82R
INDIANA*       CLOUDY    45  30  57 CALM      29.84S
LATROBE        PTCLDY    45  28  53 NW3       29.84R
WASHINGTON CO* CLEAR     45  28  53 N5        29.85S
$$

PAZ004>006-010>012-017>019-024>028-033>037-041-042-045-046-049>053-270500-
CENTRAL PENNSYLVANIA

CITY           SKY/WX    TMP DP  RH WIND       PRES   REMARKS
BRADFORD       CLOUDY    40  29  64 NW6       29.77S
DUBOIS         CLOUDY    45  29  53 W7        29.77F
CLEARFIELD     CLOUDY    45  29  53 NW7       29.78S
JOHNSTOWN      CLOUDY    42  26  53 N7        29.77S
ALTOONA        MOCLDY    45  25  45 VRB5      29.78R
STATE COLLEGE  PTCLDY    44  27  51 NW3       29.76S
WILLIAMSPORT   CLOUDY    49  30  48 NW7       29.76R
SELINSGROVE    MOCLDY    39  33  79 N3        29.76S
FT INDIANTOWN  CLEAR     46  28  49 NW3       29.75R
CAPITAL CITY   CLEAR     47  28  47 CALM      29.77R
HARRISBURG     PTCLDY    45  28  51 NW6       29.76R
YORK           CLEAR     46  28  49 N3        29.76R
$$

PAZ038>040-043-044-047-048-054-055-060>062-067>071-270500-
EASTERN PENNSYLVANIA

CITY           SKY/WX    TMP DP  RH WIND       PRES   REMARKS
SCRANTON       CLOUDY    46  28  49 N8        29.73F
MOUNT POCONO   CLOUDY    41  26  55 NW9       29.69S
ALLENTOWN      CLEAR     45  29  53 NW5       29.73S
QUAKERTOWN*    CLEAR     39  28  65 W3        29.73S
READING        CLEAR     47  27  45 W3        29.74R
LANCASTER      CLEAR     46  28  49 N6        29.74S
COATESVILLE    CLEAR     46  28  49 N3        29.75R
POTTSTOWN      CLEAR     42  29  59 CALM      29.75R
BLUE BELL      CLEAR     45  32  61 CALM      29.72S
DOYLESTOWN     CLEAR     44  32  62 CALM      29.71S
WILLOW GROVE   NOT AVBL
NORTH PHILA    CLEAR     51  25  36 NW5       29.74S
PHILADELPHIA   PTCLDY    53  29  39 N5        29.75R
$$


USA.gov is the U.S. government's official web portal to all federal, state and local government web resources and services.